Dewpoint
5 4 4 6 6 6 7 8 7 6 1 5 6 8 9 10 9 9 8 8 8 8 6 3 -2 -2 -3 -6 -11 -16 -18 -18
6 4 3 5 6 7 7 7 5 3 4 7 8 9 9 9 9 9 7 8 8 7 4 -2 -2 -2 -5 -8 -14 -19 -20 -17
7 6 6 5 6 7 7 7 6 6 7 8 8 9 9 8 10 8 7 7 7 6 1 -1 -2 -3 -6 -11 -19 -21 -16 -11
9 8 7 6 6 6 6 6 6 6 7 7 8 8 9 10 9 6 5 6 5 3 -0 -0 -2 -4 -8 -16 -22 -7 -1 -1
7 7 7 7 6 7 7 7 7 8 7 8 7 7 7 8 6 5 5 3 1 -1 -0 -0 -2 -6 -11 -19 -4 0 -1 -5
7 8 7 7 7 6 6 6 7 8 8 7 7 7 8 8 7 5 3 1 -0 -1 -1 -0 -1 -6 -10 -12 -0 0 1 1
7 7 8 8 8 7 7 6 7 7 7 7 7 9 8 9 7 5 3 2 1 -0 -0 0 -2 -6 -9 0 2 1 2 -4
7 7 6 7 7 8 7 8 8 8 8 8 6 9 9 9 8 6 5 4 5 1 0 0 -2 -7 -2 -1 -1 2 -2 -20
5 5 5 6 6 7 7 7 7 8 9 8 8 9 8 8 8 7 6 5 6 4 2 -0 -6 -6 0 -2 1 -5 -16 -7
2 3 4 4 5 5 6 7 8 7 7 8 7 6 6 7 8 7 5 5 5 3 1 -4 -6 3 -2 -3 -7 -9 -7 -9
-1 0 2 3 4 5 6 6 7 7 7 8 8 7 7 6 8 8 7 6 5 3 -1 -6 3 -5 -6 -4 -8 -8 -3 -12
0 0 1 2 4 5 5 5 5 7 7 7 8 7 7 6 7 9 9 7 6 4 -3 1 -6 -7 -5 -10 -8 -2 -5 -9
0 1 2 3 3 4 4 5 5 6 7 8 7 7 7 6 6 8 8 8 7 3 -2 -4 -8 -4 -9 -8 -3 -7 -11 -9
1 2 3 4 5 4 5 6 6 6 6 7 8 8 7 8 8 8 8 8 5 -3 -6 -8 -7 -7 -5 -2 -0 -6 -7 -9
2 3 5 6 7 7 7 7 7 8 8 8 9 9 9 9 8 7 6 5 2 -3 -8 -8 -7 -5 -1 -1 -0 -5 -8 -8
5 5 6 7 8 8 8 8 8 7 7 7 7 8 8 8 7 6 4 2 -1 -7 -7 -5 -6 -2 -1 -1 -2 -5 -6 -6
2 1 1 0 -0 -0 -1 -1 -1 -0 2 4 5 6 6 6 5 4 1 -2 -6 -7 -6 -5 -3 -2 -2 -0 -3 -5 -7 -8
-1 -2 -2 -2 -2 -2 -2 -2 -1 -0 1 3 4 5 5 4 3 3 1 -2 -5 -6 -6 -3 -2 -2 -2 -1 -2 -4 -8 -9
-1 -1 -1 -1 -1 -1 -1 -2 -1 1 3 4 4 4 4 3 3 1 -2 -4 -5 -3 -3 -1 -1 -2 -1 -1 -3 -6 -9 -11
Wind_Speed
21 21 23 22 23 23 22 21 21 21 22 23 24 24 22 20 18 16 14 15 15 14 12 13 13 12 9 6 5 5 6 7
23 25 25 24 26 25 24 23 21 24 27 27 27 25 24 23 21 20 17 17 16 16 16 16 15 11 8 6 5 5 6 8
26 26 29 31 30 29 28 26 26 27 28 26 25 25 26 24 22 20 19 19 18 19 19 18 15 11 9 6 4 2 6 9
28 30 31 33 33 31 31 31 30 30 30 28 26 25 26 28 24 22 21 21 21 22 22 18 15 12 9 5 3 5 9 16
29 31 34 35 34 33 33 33 34 34 32 32 31 31 31 30 25 22 23 23 24 25 22 19 16 12 7 5 6 12 16 16
33 35 35 35 33 33 34 34 35 35 34 33 31 32 31 25 26 26 26 26 26 26 25 23 19 16 11 7 11 19 27 30
37 35 35 38 35 34 34 35 35 35 34 33 32 33 31 30 30 31 29 28 29 29 27 24 22 19 15 18 23 20 25 19
41 41 39 38 38 37 36 35 36 35 34 34 32 35 34 34 36 33 31 31 28 32 31 27 24 18 17 15 15 21 19 12
44 44 42 42 40 38 38 38 38 37 36 33 34 36 36 37 37 37 35 33 29 30 30 27 22 16 16 15 15 18 11 16
30 35 43 42 41 38 38 38 39 38 37 35 31 36 38 36 35 37 37 35 32 32 31 27 18 26 16 12 13 10 14 15
17 23 29 34 40 35 35 35 36 37 38 38 37 34 36 31 32 35 39 38 33 34 31 23 25 17 12 15 11 9 18 14
8 13 17 19 24 27 27 29 32 34 37 35 36 34 30 29 30 35 38 37 35 34 30 27 19 15 16 11 9 15 15 14
4 6 9 10 11 14 20 23 24 25 28 32 31 31 33 30 30 32 30 30 34 33 31 26 23 17 14 11 11 13 14 16
6 7 9 11 13 16 17 17 17 19 22 26 30 31 30 29 28 27 28 29 31 31 28 24 20 16 12 8 15 14 17 16
4 6 7 8 8 9 11 13 15 18 21 23 27 28 29 29 23 21 24 28 30 28 24 19 15 13 9 11 21 11 17 18
7 6 4 3 1 1 3 5 8 11 13 15 18 20 21 20 20 22 25 27 27 25 23 22 21 16 16 23 14 18 22 25
19 19 16 13 10 7 5 2 4 6 8 9 11 13 15 17 20 23 25 24 25 25 28 27 27 23 18 21 16 23 25 27
20 18 15 12 10 8 5 4 6 8 10 11 11 11 12 15 19 22 21 22 27 27 25 27 27 26 27 23 22 23 30 28
17 16 13 11 10 8 8 7 8 8 8 8 8 7 8 12 15 16 17 22 23 26 31 32 31 31 31 28 17 28 31 32
Wind_Direction
196 194 194 189 189 195 199 203 203 201 197 196 198 207 208 210 212 215 229 232 223 222 218 214 223 233 245 274 294 313 323 320
207 204 205 204 204 204 203 206 206 203 201 202 205 209 210 212 215 218 228 226 226 222 217 221 225 237 250 270 303 326 330 341
222 222 215 212 214 213 212 209 210 209 208 210 214 216 219 222 223 223 234 228 223 220 220 225 232 244 257 276 291 333 340 334
225 222 220 216 215 215 215 214 213 215 214 215 222 223 224 224 221 232 230 221 220 223 225 230 240 247 263 282 286 317 330 329
225 223 221 220 218 218 219 219 218 220 222 224 227 226 225 225 229 232 225 222 223 224 230 235 243 253 264 261 288 328 333 333
229 228 226 226 223 220 219 221 222 225 226 229 233 231 235 239 232 230 226 225 226 230 234 238 242 248 244 253 315 317 323 316
237 235 232 229 228 226 225 224 224 227 227 231 235 234 238 238 238 232 228 229 232 232 234 238 243 243 245 288 296 319 322 304
238 237 235 233 231 228 229 230 231 232 232 233 237 237 241 244 246 241 238 240 244 238 240 242 245 247 272 281 298 314 298 282
242 241 241 240 239 236 234 233 235 237 238 239 241 241 245 250 246 246 247 245 252 247 242 240 236 252 276 279 313 298 274 290
243 243 244 244 244 239 239 238 237 243 244 242 248 249 250 260 259 246 246 248 249 246 239 233 233 276 265 278 295 268 301 286
243 241 242 244 248 246 243 244 246 249 250 248 246 248 246 265 256 248 247 248 245 243 235 231 270 244 257 280 253 296 301 272
255 246 246 247 250 247 245 243 250 250 253 253 254 254 255 262 257 251 251 251 244 242 233 254 244 236 258 243 265 305 277 251
229 225 223 225 230 235 239 243 248 256 260 259 260 260 259 262 262 257 253 255 247 236 238 239 229 248 236 246 298 282 264 247
211 217 225 229 230 232 241 248 257 262 261 259 259 259 261 263 265 256 250 243 235 226 231 228 240 230 234 252 293 256 261 258
222 225 232 241 256 262 260 261 263 269 273 270 267 267 270 271 272 260 250 240 231 225 222 223 216 212 227 280 302 268 259 264
108 115 116 123 124 281 275 275 286 291 296 295 295 291 287 278 264 252 242 234 230 222 219 224 213 219 227 280 286 271 272 270
97 97 97 95 91 87 77 39 328 310 299 296 295 290 283 271 253 245 240 234 220 219 213 215 231 231 253 286 273 274 279 278
101 95 88 80 68 52 24 350 318 307 302 299 294 287 276 266 256 251 247 230 222 215 214 224 233 249 274 278 272 275 282 281
104 98 93 84 69 49 28 3 340 324 312 306 300 288 270 255 249 247 229 218 219 223 236 254 261 265 281 286 279 282 283 283
Height
1530 1534 1537 1539 1543 1545 1548 1551 1554 1557 1559 1562 1564 1567 1568 1572 1574 1576 1577 1580 1582 1584 1582 1582 1583 1588 1586 1586 1585 1585 1584 1584
1528 1532 1535 1538 1541 1543 1545 1548 1551 1554 1556 1559 1561 1563 1566 1569 1571 1573 1575 1577 1578 1578 1580 1581 1583 1584 1583 1583 1582 1582 1581 1581
1525 1528 1531 1534 1537 1540 1542 1545 1548 1551 1554 1558 1560 1562 1564 1567 1567 1569 1571 1572 1574 1575 1577 1580 1580 1580 1580 1580 1579 1578 1578 1578
1522 1523 1525 1528 1531 1534 1538 1542 1545 1548 1551 1554 1556 1559 1561 1562 1562 1565 1566 1568 1569 1573 1576 1576 1576 1576 1576 1577 1578 1576 1572 1573
1517 1519 1521 1522 1526 1531 1534 1537 1540 1544 1547 1550 1551 1553 1554 1557 1560 1561 1563 1564 1566 1569 1571 1571 1572 1572 1573 1574 1574 1574 1573 1570
1510 1512 1516 1520 1524 1526 1529 1532 1536 1538 1542 1545 1548 1549 1551 1554 1557 1558 1559 1560 1562 1564 1565 1565 1565 1566 1567 1567 1570 1569 1568 1566
1502 1507 1511 1514 1518 1521 1524 1527 1530 1533 1536 1539 1541 1544 1546 1549 1551 1552 1553 1555 1557 1559 1559 1559 1560 1560 1560 1561 1560 1564 1561 1560
1494 1497 1500 1505 1509 1514 1518 1521 1524 1527 1530 1532 1535 1538 1540 1543 1545 1546 1547 1548 1550 1552 1553 1554 1556 1557 1558 1556 1555 1557 1555 1555
1486 1488 1493 1497 1501 1507 1511 1514 1518 1520 1523 1526 1528 1531 1534 1536 1539 1541 1542 1543 1545 1547 1549 1550 1551 1553 1551 1555 1549 1550 1551 1550
1478 1483 1486 1490 1494 1499 1504 1509 1512 1514 1517 1521 1523 1526 1529 1531 1532 1534 1537 1538 1540 1543 1544 1544 1545 1546 1547 1547 1546 1547 1547 1546
1473 1476 1480 1485 1488 1495 1500 1505 1507 1509 1513 1516 1519 1521 1523 1525 1525 1528 1530 1533 1535 1536 1539 1541 1541 1541 1543 1541 1542 1543 1542 1542
1472 1475 1478 1482 1485 1489 1495 1499 1502 1505 1507 1511 1512 1514 1516 1517 1518 1520 1523 1526 1526 1529 1533 1535 1537 1537 1535 1538 1538 1538 1536 1536
1471 1473 1476 1479 1483 1486 1490 1494 1498 1501 1504 1506 1507 1508 1510 1511 1511 1513 1515 1516 1519 1524 1527 1528 1528 1529 1533 1534 1534 1534 1533 1531
1471 1473 1475 1478 1480 1483 1486 1490 1493 1496 1499 1500 1501 1502 1503 1505 1506 1507 1509 1512 1515 1519 1523 1525 1527 1526 1528 1528 1527 1527 1528 1528
1469 1471 1474 1476 1479 1482 1484 1487 1490 1492 1494 1495 1496 1497 1498 1499 1501 1503 1506 1507 1512 1515 1520 1524 1524 1523 1524 1524 1523 1522 1522 1523
1468 1470 1472 1474 1477 1479 1481 1484 1486 1488 1489 1490 1491 1492 1493 1494 1496 1499 1502 1505 1508 1512 1514 1515 1517 1516 1517 1518 1516 1517 1516 1516
1468 1470 1473 1474 1476 1478 1480 1482 1484 1484 1485 1486 1486 1487 1489 1491 1494 1497 1500 1504 1506 1509 1506 1506 1507 1511 1514 1513 1512 1511 1510 1508
1470 1471 1473 1475 1477 1478 1480 1482 1482 1482 1482 1482 1483 1484 1486 1489 1492 1495 1497 1500 1503 1502 1504 1504 1504 1506 1508 1506 1506 1505 1502 1500
1471 1473 1475 1476 1477 1479 1480 1480 1480 1480 1480 1480 1481 1483 1485 1487 1489 1491 1494 1496 1499 1499 1500 1501 1503 1503 1503 1500 1499 1497 1494 1491